STARLINK-1663

Last updated on Fri Nov 06 2020 00:02:03 GMT+0000 (Coordinated Universal Time)

1 46535U 20070D 20310.58343750 -.01076502 00000-0 -20194-1 0 9993 2 46535 52.9990 294.3599 0001180 57.5760 307.7553 15.50872755 1770

Satellite not in orbit

STARLINK-1663